Terug naar catalogus

SL-8 R/B

ActiefPO
NORAD 21153·ROCKET BODY·🇷🇺 Russia

Gelanceerd Mar 12, 1991 vanaf Plesetsk Cosmodrome

Loading…

Volgende Passages (komende 24 uur)

TLE

VersSource: Space-Track

Epoch: Sep 14, 2026, 08:06 UTC

1 21153U 91019B   26257.33760565  .00000005  00000-0 -11089-4 0  9998
2 21153  82.9257 210.6346 0030481  78.0917  74.2697 13.76367805782713

Volg SL-8 R/B in realtime met AllMySat

Download on the App Store